Location: Br�znic
(45.9167°N, 22.6500°E)
Time: 14:53:18
(UTC+00:00)

USA 186 - Pass Details

Date: 03 March 2021
Orbit: 261 x 429 km, 96.9° (Epoch: 15 April)

Event Time Altitude Azimuth Distance (km) Brightness Sun altitude
Exits shadow 18:28:20 14° 324° (NW) 968 4.2 -23.1°
Drops below altitude 10° 18:28:49 10° 330° (NNW) 1,159 4.6 -23.2°
Sets 18:30:50 0° 340° (NNW) 2,019 5.7 -23.6°
